Location: Northern Prairie Star Party
(53.2167°N, 112.5333°W)
Time: 06:15:30
(UTC-06:00)

Daily predictions for brighter satellites

Satellite Brightness Start Highest point End
(mag) Time Altitude Azimuth Time Altitude Azimuth Time Altitude Azimuth
Cosmos 2344 4.4 22:39:06 10° WSW 22:47:04 69° NNW 22:57:07 10° NE
H-2A R/B 2.4 22:42:18 10° SSE 22:47:34 62° ENE 22:52:58 10° N
Meteor 1-27 4.3 22:42:15 10° NNW 22:48:03 85° ENE 22:53:42 10° SSE
Cosmos 2242 Rocket 3.9 22:44:37 10° N 22:49:02 55° ENE 22:53:26 10° SSE
Cosmos 1441 Rocket 4.4 22:45:33 10° SW 22:49:11 44° WNW 22:52:48 10° N
SL-08 RB Rocket 3.8 22:48:01 10° SSE 22:52:30 81° WSW 22:57:02 10° NNW
Cosmos 1726 2.2 22:48:56 10° N 22:52:43 75° E 22:56:30 10° SSE
ATLAS 3B R/B 3.5 22:46:01 10° NW 22:53:10 53° NNE 22:59:51 10° ESE
Cosmos 2219 3.6 22:48:39 10° S 22:54:03 44° ESE 22:59:29 10° NE
Cosmos 2333 4.3 22:48:22 10° NNW 22:54:07 87° WSW 22:59:53 10° SSE
NOSS 0 Rocket 4.2 22:48:31 10° NNW 22:54:40 67° NE 23:00:49 10° SE
Cosmos 1680 Rocket 4.5 22:53:42 10° NW 22:58:38 43° WSW 23:03:34 10° S
Cosmos 2237 Rocket 2.7 22:53:15 10° NNW 22:58:52 54° NE 23:04:27 10° SE
DELTA 2 DEB (DPAF) 4.2 22:54:47 10° SSE 22:59:17 86° WSW 23:03:49 10° NNW
SPOT 1/Viking Rocket 4.2 22:54:41 10° S 22:59:43 54° W 23:04:48 10° NNW
SAR-Lupe-2 3.9 22:57:26 10° SSE 23:00:57 55° ENE 23:04:29 10° N
NOSS 3-1 (C) 4.2 22:56:31 10° S 23:01:46 33° ESE 23:07:33 10° ENE
AVUM R/B 2.5 22:59:43 10° SSW 23:02:07 75° SE 23:04:48 10° NE
USA 245 4.2 23:05:28 10° SSW 23:07:35 23° W 23:09:33 10° NW
Iridium 2 4.5 23:04:07 10° SSE 23:07:40 38° E 23:11:16 10° NNE
CZ-4B R/B 3.8 23:04:50 10° NNE 23:10:09 82° WNW 23:15:24 10° SSW
Cosmos 1862 Rocket 4.2 23:06:06 10° N 23:10:19 44° ENE 23:14:28 10° SE
Cosmos 2360 Rocket 3.6 23:07:35 10° NW 23:12:29 31° WSW 23:17:23 10° SSW
DMSP B5D2-2 4.4 23:12:44 10° NNE 23:17:50 48° E 23:22:51 10° S
CARTOSAT-1 3.6 23:14:45 10° SSE 23:19:04 82° WSW 23:23:26 10° NNW
Landsat 7 4.2 23:14:36 10° S 23:19:19 64° WSW 23:24:05 10° NNW
Cosmos 1898 Rocket 3.9 23:14:44 10° S 23:19:38 44° ESE 23:24:34 10° NE
CZ-4B R/B 4.1 23:20:12 10° ENE 23:21:17 11° ENE 23:22:21 10° NE
Meteor 1-11 4.3 23:18:15 10° S 23:24:01 86° ESE 23:29:47 10° NNE
Cosmos 1633 Rocket 3.0 23:20:15 10° S 23:24:37 75° E 23:29:00 10° NNE
Sich 1 3.1 23:20:32 10° S 23:24:57 79° E 23:29:23 10° NNE
Cosmos 292 Rocket 4.0 23:23:36 10° NNW 23:28:21 68° WSW 23:32:54 11° SSE
Spot 4 3.9 23:23:45 10° SSE 23:28:36 88° WSW 23:33:30 10° NNW
CENTAUR R/B 4.4 23:22:15 10° WNW 23:28:37 39° N 23:35:43 10° ENE
Meteor 1-4 Rocket 3.0 23:25:22 10° NNW 23:29:09 61° W 23:32:51 10° S
Cosmos 1300 4.1 23:27:07 10° NNW 23:30:38 34° W 23:34:09 10° SSW
Cosmos 2151 4.3 23:27:20 10° SW 23:31:17 39° WNW 23:35:17 10° N
Terra 2.1 23:30:28 10° S 23:35:11 64° WSW 23:39:57 10° NNW
Meteor 2-10 4.4 23:29:31 10° NNW 23:35:11 79° W 23:40:53 10° S
USA 234 3.7 23:30:28 10° E 23:36:56 66° N 23:43:25 10° WNW
Cosmos 1626 2.9 23:34:25 13° SSE 23:37:27 37° E 23:40:57 10° NNE
Cosmos 1805 Rocket 4.3 23:33:41 10° SSW 23:38:04 55° WNW 23:42:27 10° N
Cosmos 1346 4.1 23:36:18 14° SSE 23:38:26 32° E 23:41:12 10° NNE
CZ-4 R/B 4.4 23:34:19 10° N 23:39:16 62° WNW 23:44:07 10° SSW
USA 32 4.5 23:36:09 10° NNW 23:41:22 62° W 23:46:32 10° S
SeaSat 1 2.5 23:38:15 12° SE 23:42:54 80° NE 23:47:53 10° NNW
Cosmos 2333 Rocket 2.3 23:38:17 10° NW 23:44:02 76° WSW 23:49:11 13° SSE
Cosmos 2227 Rocket 3.1 23:39:32 12° SSE 23:44:06 32° ESE 23:49:03 10° NE
USA 229 DEB 4.0 23:37:28 10° SW 23:44:26 77° NW 23:51:32 10° NE
USA 229 4.0 23:37:33 10° SW 23:44:31 78° NW 23:51:37 10° NE
Cosmos 1869 3.4 23:41:32 10° N 23:45:36 77° ENE 23:49:01 14° SSE
Lacrosse 4 Rocket 2.3 23:42:07 10° NNW 23:46:23 49° NE 23:50:43 10° ESE
ALOS 2 4.0 23:44:13 10° ESE 23:47:59 29° ENE 23:51:47 10° N
SL-16 R/B 2.6 23:44:25 10° NNW 23:50:04 60° NE 23:55:32 11° SE
Nadezhda 1 Rocket 4.1 23:45:08 10° NNW 23:51:12 75° W 23:57:05 11° S
BREEZE-M DEB (TANK) 3.9 23:36:07 10° W 23:52:13 66° SSW 23:56:22 10° ESE
Cosmos 1455 2.3 23:49:59 10° NNW 23:53:46 73° W 23:56:59 14° S
